Airfield :
LOGIN :

Register | Disclaimer

   EN    FR    IT 

 










Legend :    VFR   Marginal VFR   IFR   Intensive IFR   Very Intensive IFR
Visi :
Ceiling :
>= 8 km
>= 3000ft
5 to 8 km
1000 to 3000 ft
1500m to 5 km
500 to 1000 ft
800 to 1500m
200 to 500 ft
< 800m
< 200 ft
Symbols :   Thunderstorms  Fog  Heavy snow  Heavy precipitations  Wind > 20 kt
SIGMETs :     Misc.  Thunderstorms  Icing  Turbulence  Mountain Waves  Volcanic Ashes







- Airport Elevation : 465 ft
- IATA code : LEJ


EDDP - Leipzig Halle

CURRENT METAR :
  • 202220Z 04007KT CAVOK 12/02 Q1027 NOSIG

EXPIRED METARs :
  • 202150Z 03007KT CAVOK 12/02 Q1027 NOSIG
  • 202120Z 03006KT CAVOK 12/02 Q1027 NOSIG
  • 202050Z 02006KT CAVOK 12/03 Q1027 NOSIG
  • 202020Z 02005KT CAVOK 12/03 Q1027 NOSIG
  • 201950Z 36007KT CAVOK 13/03 Q1027 NOSIG

TAF TAF EDDP
Valid from the 20 at 18:00 until the 21 at 18:00 UTC


201700Z 2018/2118 01005KT CAVOK
BECMG 2107/2109 07008KT
No reported NOTAMs for that airfield.



MET'MAP, your aeronautical weather chart ! - Copyright ORBIFLY December 2007 - Disclaimer

ORBIFLY MET'MAP TEAM :

Programming & Development : Alexandra Zaïnal
Concept & Development : Baudouin d'Aumeries
Co-Development & Prog : Marc-Olivier Méhu
Technical & hardware support : Manuel Goepfert

Contact : metmap@orbifly.com




SOURCES & CREDITS :

   NOAA